This is the latest recevied weather packets stored in our database for station/object DL7MAP-13. If no packets are shown the sender has not sent any weather packets the latest 10 day(s).
| Time | Temp. | Humidity | Pressure | Rain* | Wind** | Luminosity | Snow |
|---|---|---|---|---|---|---|---|
| 1777719486 | 23.89° C | 33% | 1015.6 hPa | - | - | - | - |
| 1777718587 | 23.89° C | 33% | 1016.2 hPa | - | - | - | - |
| 1777717687 | 23.89° C | 33% | 1016.4 hPa | - | - | - | - |
| 1777716787 | 23.33° C | 34% | 1016.8 hPa | - | - | - | - |
| 1777715886 | 23.33° C | 35% | 1017.1 hPa | - | - | - | - |
| 1777714087 | 22.78° C | 38% | 1017.7 hPa | - | - | - | - |
| 1777713187 | 22.22° C | 39% | 1016.6 hPa | - | - | - | - |
| 1777712287 | 22.22° C | 40% | 1018.2 hPa | - | - | - | - |
| 1777711387 | 21.67° C | 41% | 1017.8 hPa | - | - | - | - |
| 1777710487 | 21.11° C | 41% | 1017.9 hPa | - | - | - | - |
| 1777709587 | 20.56° C | 44% | 1018.7 hPa | - | - | - | - |
| 1777708687 | 20.56° C | 44% | 1017.7 hPa | - | - | - | - |
| 1777707788 | 19.44° C | 46% | 1018.2 hPa | - | - | - | - |
| 1777706887 | 19.44° C | 47% | 1018.1 hPa | - | - | - | - |
| 1777705986 | 18.89° C | 49% | 1017.6 hPa | - | - | - | - |
| 1777705087 | 18.33° C | 52% | 1018.8 hPa | - | - | - | - |
| 1777704187 | 17.78° C | 54% | 1018.1 hPa | - | - | - | - |
| 1777703287 | 16.67° C | 55% | 1017.8 hPa | - | - | - | - |
| 1777702386 | 16.11° C | 59% | 1018.3 hPa | - | - | - | - |
| 1777701486 | 15° C | 64% | 1018.7 hPa | - | - | - | - |
| 1777700587 | 13.33° C | 68% | 1018.8 hPa | - | - | - | - |
| 1777699687 | 12.78° C | 71% | 1018.9 hPa | - | - | - | - |
| 1777698787 | 12.22° C | 73% | 1018.7 hPa | - | - | - | - |
| 1777697886 | 11.67° C | 77% | 1018.9 hPa | - | - | - | - |
| 1777696987 | 10.56° C | 81% | 1019 hPa | - | - | - | - |
* Rain since midnight (hover to see other rain measurements)
** Current wind speed in m/s (hover to see current wind gust speed)